Tracking 30995 objects as of 5-Jul-2025
HD Live streaming from Space Station
objects crossing your sky now

QIANFAN-58

Track QIANFAN-58 now!
10-day predictions
QIANFAN-58 is classified as:


NORAD ID: 62788
Int'l Code: 2025-016D
Perigee: 1,063.7 km
Apogee: 1,088.1 km
Inclination: 89.0 °
Period: 106.6 minutes
Semi major axis: 7446 km
RCS: Unknown
Launch date: January 23, 2025
Source: People's Republic of China (PRC)
Launch site: Taiyaun Space Center, China (TSC)
Your satellite tracking list
Your tracking list is empty




NASA's NSSDC Master Catalog

Two Line Element Set (TLE):
1 62788U 25016D   25186.59376457  .00000115  00000-0  15969-3 0  9993
2 62788  88.9839 119.5676 0016332  84.8601 275.4414 13.50948559 25626
Source of the keplerian elements: AFSPC